Red Oak, IA

8:21 AM CST on February 12, 2016 (GMT -0600)
Red Oak Municipal

Weather History for KRDK - December, 2011

Change the Weather History Date:

Wednesday, December 28, 2011

  Actual Average Record
Temperature  
Mean Temperature 34 °F -  
Max Temperature 50 °F 34 °F 67 °F (1984)
Min Temperature 19 °F 17 °F -6 °F (1961)
Degree Days  
Heating Degree Days 30    
Moisture  
Dew Point 22 °F    
Average Humidity 68    
Maximum Humidity 86    
Minimum Humidity 35    
Precipitation  
Precipitation 0.00 in - - ()
Sea Level Pressure  
Sea Level Pressure 29.92 in    
Wind  
Wind Speed 3 mph (SSW)    
Max Wind Speed 12 mph    
Max Gust Speed -    
Visibility 10 miles    
Events      
Averages and records for this station are not official NWS values.
T = Trace of Precipitation, MM = Missing Value Source: NWS Daily Summary

Daily Weather History Graph

Daily Weather History Graph

Search for Another Location

Airport or City:

Trip Planner

Search our weather history database for the weather conditions in past years. The results will help you decide how hot, cold, wet, or windy it might be!

Date:

Astronomy

Dec. 28, 2011 Rise Set
Actual Time 7:45 AM CST 5:00 PM CST
Civil Twilight 7:14 AM CST 5:31 PM CST
Nautical Twilight 6:39 AM CST 6:05 PM CST
Astronomical Twilight 6:06 AM CST 6:39 PM CST
Moon 10:09 AM CST (12/28) 9:39 PM CST (12/28)
Length of Visible Light 10h 17m
Length of Day
9h 14m
Waxing Crescent, 18% of the Moon is Illuminated
Dec 28
Waxing Crescent
Jan 1
First Quarter
Jan 9
Full
Jan 16
Last Quarter
Jan 23
New

Hourly Weather History & Observations

Time (CST) Temp. Windchill Dew Point Humidity Pressure Visibility Wind Dir Wind Speed Gust Speed Precip Events Conditions
12:15 AM 28.4 °F - 21.2 °F 74% 30.04 in 10.0 mi Calm Calm - N/A   Clear
12:35 AM 23.0 °F - 17.6 °F 80% 30.04 in 10.0 mi Calm Calm - N/A   Clear
12:55 AM 24.8 °F - 19.4 °F 80% 30.05 in 10.0 mi Calm Calm - N/A   Clear
1:15 AM 23.0 °F - 17.6 °F 80% 30.04 in 10.0 mi Calm Calm - N/A   Clear
1:35 AM 23.0 °F - 17.6 °F 80% 30.04 in 10.0 mi Calm Calm - N/A   Clear
1:55 AM 21.2 °F - 17.6 °F 86% 30.04 in 10.0 mi Calm Calm - N/A   Clear
2:15 AM 21.2 °F - 15.8 °F 80% 30.03 in 10.0 mi Calm Calm - N/A   Clear
2:35 AM 21.2 °F - 15.8 °F 80% 30.03 in 10.0 mi Calm Calm - N/A   Clear
2:55 AM 19.4 °F - 15.8 °F 86% 30.03 in 10.0 mi Calm Calm - N/A   Clear
3:15 AM 19.4 °F - 15.8 °F 86% 30.02 in 10.0 mi Calm Calm - N/A   Clear
3:35 AM 21.2 °F - 17.6 °F 86% 30.01 in 10.0 mi Calm Calm - N/A   Clear
3:55 AM 23.0 °F - 17.6 °F 80% 30.00 in 10.0 mi Calm Calm - N/A   Clear
4:15 AM 19.4 °F - 15.8 °F 86% 29.99 in 10.0 mi Calm Calm - N/A   Clear
4:35 AM 21.2 °F - 17.6 °F 86% 29.99 in 10.0 mi Calm Calm - N/A   Clear
4:55 AM 19.4 °F - 15.8 °F 86% 29.98 in 10.0 mi Calm Calm - N/A   Clear
5:15 AM 23.0 °F - 19.4 °F 86% 29.98 in 10.0 mi Calm Calm - N/A   Clear
5:35 AM 21.2 °F - 15.8 °F 80% 29.98 in 10.0 mi Calm Calm - N/A   Clear
5:55 AM 23.0 °F - 19.4 °F 86% 29.98 in 10.0 mi Calm Calm - N/A   Clear
6:15 AM 23.0 °F 18.4 °F 17.6 °F 80% 29.97 in 10.0 mi South 3.5 mph - N/A   Clear
6:35 AM 23.0 °F 18.4 °F 17.6 °F 80% 29.96 in 10.0 mi South 3.5 mph - N/A   Clear
6:55 AM 24.8 °F 17.9 °F 19.4 °F 80% 29.96 in 10.0 mi South 5.8 mph - N/A   Clear
7:15 AM 24.8 °F 19.1 °F 19.4 °F 80% 29.95 in 10.0 mi South 4.6 mph - N/A   Clear
7:35 AM 24.8 °F 17.9 °F 19.4 °F 80% 29.94 in 10.0 mi SSW 5.8 mph - N/A   Clear
7:55 AM 24.8 °F 16.9 °F 19.4 °F 80% 29.93 in 10.0 mi SSW 6.9 mph - N/A   Clear
8:15 AM 24.8 °F 20.5 °F 19.4 °F 80% 29.94 in 10.0 mi SSW 3.5 mph - N/A   Clear
8:35 AM 26.6 °F 22.6 °F 21.2 °F 80% 29.94 in 10.0 mi SW 3.5 mph - N/A   Clear
8:55 AM 28.4 °F 23.3 °F 23.0 °F 80% 29.94 in 10.0 mi South 4.6 mph - N/A   Clear
9:15 AM 30.2 °F 25.4 °F 24.8 °F 80% 29.95 in 10.0 mi South 4.6 mph - N/A   Clear
9:35 AM 33.8 °F 27.7 °F 26.6 °F 75% 29.93 in 10.0 mi South 6.9 mph - N/A   Clear
9:55 AM 33.8 °F 28.6 °F 26.6 °F 75% 29.94 in 10.0 mi SSW 5.8 mph - N/A   Clear
10:15 AM 37.4 °F 29.8 °F 26.6 °F 65% 29.94 in 10.0 mi SW 11.5 mph - N/A   Clear
10:35 AM 37.4 °F 30.3 °F 26.6 °F 65% 29.94 in 10.0 mi SW 10.4 mph - N/A   Clear
10:55 AM 39.2 °F 34.2 °F 26.6 °F 61% 29.93 in 10.0 mi WSW 6.9 mph - N/A   Clear
11:15 AM 39.2 °F 33.6 °F 26.6 °F 61% 29.92 in 10.0 mi SW 8.1 mph - N/A   Clear
11:35 AM 41.0 °F 36.4 °F 26.6 °F 57% 29.91 in 10.0 mi WSW 6.9 mph - N/A   Clear
11:55 AM 42.8 °F 38.6 °F 26.6 °F 53% 29.89 in 10.0 mi SSW 6.9 mph - N/A   Clear
12:15 PM 42.8 °F 38.6 °F 26.6 °F 53% 29.88 in 10.0 mi SSW 6.9 mph - N/A   Clear
12:35 PM 44.6 °F 39.7 °F 26.6 °F 49% 29.88 in 10.0 mi SW 9.2 mph - N/A   Clear
12:55 PM 46.4 °F 41.9 °F 24.8 °F 43% 29.88 in 10.0 mi WSW 9.2 mph - N/A   Clear
1:15 PM 46.4 °F 41.9 °F 24.8 °F 43% 29.87 in 10.0 mi SW 9.2 mph - N/A   Clear
1:35 PM 48.2 °F - 24.8 °F 40% 29.85 in 10.0 mi SW 8.1 mph - N/A   Clear
1:55 PM 48.2 °F - 23.0 °F 37% 29.85 in 10.0 mi WSW 6.9 mph - N/A   Clear
2:15 PM 48.2 °F - 23.0 °F 37% 29.85 in 10.0 mi WSW 6.9 mph - N/A   Clear
2:35 PM 50.0 °F - 23.0 °F 35% 29.85 in 10.0 mi SW 6.9 mph - N/A   Clear
3:35 PM 48.2 °F - 24.8 °F 40% 29.84 in 10.0 mi SSW 8.1 mph - N/A   Clear
4:15 PM 46.4 °F 42.4 °F 26.6 °F 46% 29.84 in 10.0 mi South 8.1 mph - N/A   Clear
4:35 PM 44.6 °F 40.7 °F 26.6 °F 49% 29.84 in 10.0 mi South 6.9 mph - N/A   Clear
4:55 PM 42.8 °F 40.1 °F 26.6 °F 53% 29.84 in 10.0 mi South 4.6 mph - N/A   Scattered Clouds
5:15 PM 37.4 °F 34.9 °F 24.8 °F 60% 29.84 in 7.0 mi South 3.5 mph - N/A   Scattered Clouds
5:35 PM 37.4 °F 33.8 °F 24.8 °F 60% 29.84 in 10.0 mi South 4.6 mph - N/A   Scattered Clouds
5:55 PM 37.4 °F 33.8 °F 24.8 °F 60% 29.83 in 10.0 mi South 4.6 mph - N/A   Clear
6:15 PM 37.4 °F 34.9 °F 24.8 °F 60% 29.83 in 10.0 mi SSW 3.5 mph - N/A   Clear
6:35 PM 37.4 °F 33.8 °F 24.8 °F 60% 29.82 in 10.0 mi SSW 4.6 mph - N/A   Scattered Clouds
6:55 PM 37.4 °F 32.8 °F 26.6 °F 65% 29.82 in 10.0 mi South 5.8 mph - N/A   Clear
7:35 PM 37.4 °F 32.1 °F 26.6 °F 65% 29.82 in 10.0 mi South 6.9 mph - N/A   Clear
7:55 PM 37.4 °F 30.8 °F 26.6 °F 65% 29.80 in 10.0 mi South 9.2 mph - N/A   Scattered Clouds
8:15 PM 37.4 °F 30.8 °F 26.6 °F 65% 29.79 in 10.0 mi South 9.2 mph - N/A   Clear
8:35 PM 37.4 °F 32.8 °F 28.4 °F 70% 29.79 in 10.0 mi South 5.8 mph - N/A   Mostly Cloudy
8:55 PM 39.2 °F 34.2 °F 28.4 °F 65% 29.79 in 10.0 mi South 6.9 mph - N/A   Overcast
9:15 PM 39.2 °F 37.0 °F 28.4 °F 65% 29.78 in 10.0 mi South 3.5 mph - N/A   Overcast
9:35 PM 39.2 °F - 30.2 °F 70% 29.79 in 10.0 mi Calm Calm - N/A   Overcast
9:55 PM 39.2 °F 37.0 °F 28.4 °F 65% 29.78 in 10.0 mi SSE 3.5 mph - N/A   Mostly Cloudy
10:15 PM 37.4 °F 32.8 °F 28.4 °F 70% 29.76 in 10.0 mi SSE 5.8 mph - N/A   Mostly Cloudy
10:35 PM 37.4 °F 32.1 °F 28.4 °F 70% 29.76 in 10.0 mi South 6.9 mph - N/A   Mostly Cloudy
10:55 PM 35.6 °F 29.9 °F 28.4 °F 75% 29.73 in 10.0 mi South 6.9 mph - N/A   Scattered Clouds
11:15 PM 35.6 °F 30.7 °F 28.4 °F 75% 29.74 in 10.0 mi South 5.8 mph - N/A   Scattered Clouds
11:35 PM 35.6 °F 30.7 °F 28.4 °F 75% 29.72 in 10.0 mi South 5.8 mph - N/A   Clear
11:55 PM 35.6 °F - 26.6 °F 70% 29.72 in 10.0 mi Calm Calm - N/A   Scattered Clouds